Location: Caltech
(34.1382°N, 118.1253°W)
Time: 16:25:28
(UTC-08:00)

ERBS - Visible Passes

Search period start: 26 February 2015 00:00
Search period end: 08 March 2015 00:00
Orbit: 457 x 473 km, 57.0° (Epoch: 25 February)

Date Brightness Start Highest point End Pass type
(mag) Time Alt. Az. Time Alt. Az. Time Alt. Az.
05 Mar 5.2 05:26:16 10° N 05:28:45 17° NE 05:31:18 10° E visible
06 Mar 5.3 04:54:07 10° N 04:56:02 14° NE 04:58:03 10° ENE visible
07 Mar 5.6 04:22:17 10° NNE 04:23:17 11° NE 04:24:26 10° NE visible
